Home > Weather > Nizwa > Past weeks

Flag for Oman Past Weather in Nizwa, Oman — Yesterday and Last 2 Weeks

Now
102 °F

Clear.


Feels Like: 99 °F
Forecast: 71 / 101 °F
Wind: 7 mph from West

Location: International Airport

Current Time: Jun 27, 2016 at 10:05:34 AM

Latest Report: Jun 27, 2016 at 8:50 AM


Visibility: 6 mi

Pressure: 29.47 "Hg (27.83 "Hg at 522m altitude)

Humidity: 16%

Dew Point: 48 °F

Location of NizwaLocation

Past Weather in Nizwa — Graph

°F

Nizwa Temperature Yesterday

Maximum temperature yesterday: 95 °F (at 10:50 AM)
Minimum temperature yesterday: 88 °F (at 2:50 AM)
Average temperature yesterday: 92 °F

High & Low Weather Summary for the Past Weeks

 TemperatureHumidityPressure
High115 °F (Jun 12, 11:50 AM)89% (Jun 17, 12:50 AM)29.62 "Hg (Jun 17, 12:50 AM)
Low86 °F (Jun 15, 5:50 AM)13% (Jun 12, 11:50 AM)29.42 "Hg (Jun 15, 4:50 PM)
Average93 °F60%29.50 "Hg
* Reported Jun 12 7:50 AM — Jun 27 7:50 AM, Nizwa, Weather by CustomWeather, © 2016

Note: Actual official high and low records may vary slightly from our data, if they occured in-between our weather recording intervals... More about our weather records

Advertising

Nizwa Weather History for the Previous 24 Hours

Scroll right to see more
 ConditionsComfort  
Time TempWeatherWind HumidityBarometerVisibility
7:50 AM
Mon, Jun 27
97 °FClear.5 mph34%29.47 "Hg6 mi
6:50 AM90 °FClear.1 mph49%29.47 "Hg6 mi
5:50 AM86 °FClear.1 mph55%29.45 "Hg6 mi
4:50 AM86 °FClear.2 mph75%29.45 "Hg6 mi
3:50 AM88 °FClear.2 mph75%29.45 "Hg6 mi
2:50 AM88 °FClear.2 mph75%29.45 "Hg6 mi
1:50 AM90 °FClear.No wind75%29.42 "Hg6 mi
12:50 AM90 °FClear.5 mph75%29.45 "Hg5 mi
11:50 PM
Sun, Jun 26
90 °FClear.7 mph75%29.47 "Hg10 mi
10:50 PM95 °FClear.5 mph36%29.45 "Hg6 mi
9:50 PM95 °FClear.3 mph34%29.45 "Hg6 mi
8:50 PM93 °FClear.2 mph44%29.47 "Hg6 mi
7:50 PM91 °FClear.5 mph63%29.47 "Hg6 mi
6:50 PM95 °FClear.10 mph44%29.47 "Hg6 mi
5:50 PM95 °FClear.10 mph47%29.45 "Hg6 mi
4:50 PM95 °FPassing clouds.13 mph47%29.45 "Hg6 mi
3:50 PM95 °FPassing clouds.14 mph53%29.47 "Hg6 mi
2:50 PM95 °FClear.13 mph56%29.47 "Hg6 mi
1:50 PM93 °FClear.13 mph67%29.50 "Hg6 mi
12:50 PM95 °FExtremely hot.12 mph60%29.50 "Hg6 mi
11:50 AM95 °FClear.10 mph56%29.53 "Hg6 mi
10:50 AM95 °FClear.9 mph56%29.56 "Hg6 mi
Weather by CustomWeather, © 2016

See weather overviewHow to use our weather pages